Regional Weather Roundup
Issued by NWS

Home | Current Version | Previous Version | Graphics & Text | Print | Product List | Glossary On
Versions: 1 2 3 4 5 6 7 8 9 10 11 12 13 14 15 16 17 18 19 20 21 22 23 24 25 26 27 28 29 30 31 32 33 34 35 36 37 38 39 40 41 42 43 44 45 46 47 48 49 50
000
ASUS43 KOAX 302202
RWRNE

WEATHER ROUNDUP FOR NEBRASKA
NATIONAL WEATHER SERVICE OMAHA NE
500 PM CDT SAT AUG 30 2014

NOTES: SATELLITE DATA IS BEING USED TO AUGMENT CLOUD COVER ABOVE
       12000 FEET.
       "FAIR" INDICATES FEW OR NO CLOUDS BELOW 12,000 FEET WITH NO
       SIGNIFICANT WEATHER AND/OR OBSTRUCTIONS TO VISIBILITY.

  * THESE STATIONS DO NOT REPORT WEATHER SUCH AS RAIN...SNOW OR FOG.

NEZ001>004-019>022-054>056-302300-
NEBRASKA PANHANDLE

CITY           SKY/WX    TMP DP  RH WIND       PRES   REMARKS
SCOTTSBLUFF    MOSUNNY   92  45  19 SW17      29.78F
ALLIANCE       SUNNY     88  50  27 S18G28    29.80F
CHADRON        SUNNY     94  44  17 SW16      29.71F HX  90
KIMBALL        MOSUNNY   86  39  18 S15       29.88F
SIDNEY         SUNNY     89  43  20 S16G26    29.88F
$$

NEZ057>060-069>072-079>082-302300-
SOUTHWEST NEBRASKA

CITY           SKY/WX    TMP DP  RH WIND       PRES   REMARKS
NORTH PLATTE   SUNNY     84  60  44 S12       29.84F
IMPERIAL       SUNNY     89  50  26 S16G23    29.85F
LEXINGTON      SUNNY     84  65  52 SE10G18   29.86F
MCCOOK         SUNNY     92  55  28 SW10      29.84F HX  90
OGALLALA       SUNNY     86  55  34 S10       29.83F
$$

NEZ005>010-023>029-035>040-094-302300-
NORTH CENTRAL NEBRASKA

CITY           SKY/WX    TMP DP  RH WIND       PRES   REMARKS
VALENTINE      SUNNY     85  61  44 SE18G26   29.79F
AINSWORTH      SUNNY     81  62  53 SE14G20   29.83F
BROKEN BOW     SUNNY     82  65  56 SE16G24   29.86F
O`NEILL        SUNNY     81  64  55 SE9G17    29.85F
ORD            MOSUNNY   80  64  58 S13G21    29.85F
THEDFORD       SUNNY     85  61  44 S17G24    29.84F
$$

NEZ041-046>049-061>064-073>077-083>087-302300-
SOUTH CENTRAL NEBRASKA

CITY           SKY/WX    TMP DP  RH WIND       PRES   REMARKS
GRAND ISLAND   SUNNY     82  66  58 SE14      29.88F
AURORA         MOSUNNY   81  65  57 S8        29.88F
HASTINGS       SUNNY     83  62  49 S10       29.88F
HEBRON         SUNNY     85  58  38 S7        29.88F
HOLDREGE       SUNNY     84  62  46 S13       29.87F
KEARNEY *      SUNNY     82  64  54 SE13G20   29.88F
$$

NEZ011>018-030>034-042>045-302300-
NORTHEAST NEBRASKA

CITY           SKY/WX    TMP DP  RH WIND       PRES   REMARKS
NORFOLK        SUNNY     79  61  53 SE6       29.87F
ALBION         SUNNY     78  62  58 S10       29.88F
BLAIR          SUNNY     81  60  49 CALM      29.89F
FREMONT        SUNNY     82  60  48 S6        29.89S
TEKAMAH        SUNNY     81  61  50 CALM      29.87F
WAYNE          SUNNY     77  65  67 CALM      29.88F
$$

NEZ050>053-065>068-078-088>093-302300-
SOUTHEAST NEBRASKA

CITY           SKY/WX    TMP DP  RH WIND       PRES   REMARKS
LINCOLN        SUNNY     85  61  44 SE5       29.87F
OMAHA EPPLEY   MOSUNNY   81  64  56 SE8       29.88F
BEATRICE       SUNNY     85  65  51 SE5       29.88F
FALLS CITY     SUNNY     87  67  51 N3        29.87F HX  90
NEBRASKA CITY  MOSUNNY   81  63  54 CALM      29.88F
PLATTSMOUTH    SUNNY     82  60  48 CALM      29.89F
$$

NEZ044-045-051>053-067-302300-
OMAHA AREA

CITY           SKY/WX    TMP DP  RH WIND       PRES   REMARKS
OMAHA EPPLEY   MOSUNNY   81  64  56 SE8       29.88F
BLAIR          SUNNY     81  60  49 CALM      29.89F
FREMONT        SUNNY     82  60  48 S6        29.89S
MILLARD        SUNNY     82  65  57 SE5       29.88F
OFFUTT AFB     SUNNY     81  68  65 SW5       29.88F
PLATTSMOUTH    SUNNY     82  60  48 CALM      29.89F
WAHOO          FAIR      82  59  45 SE5       29.88F
$$


USA.gov is the U.S. government's official web portal to all federal, state and local government web resources and services.